Home   Weather   Schwechat   Past weeks

Flag for Austria Past Weather in Schwechat, Lower Austria, Austria — Yesterday and Last 2 Weeks

Now
72 °F

Scattered clouds.


Feels Like: 77 °F
Forecast: 48 / 68 °F
Wind: 6 mph from East

Location: Vienna Schwechat-Flughafen Airport

Current Time: Sep 25, 2016 at 4:15:51 PM

Latest Report: Sep 25, 2016 at 3:20 PM


Visibility: N/A

Pressure: 30.12 "Hg

Humidity: 44%

Dew Point: 48 °F

Location of SchwechatLocation

Past Weather in Schwechat — Graph

°F

Schwechat Temperature Yesterday

Maximum temperature yesterday: 72 °F (at 2:50 PM)
Minimum temperature yesterday: 46 °F (at 4:20 AM)
Average temperature yesterday: 58 °F

High & Low Weather Summary for the Past Weeks

 TemperatureHumidityPressure
High86 °F (Sep 12, 2:20 PM)100% (Sep 13, 6:20 AM)30.36 "Hg (Sep 13, 6:20 AM)
Low43 °F (Sep 23, 2:20 AM)33% (Sep 12, 4:20 PM)29.77 "Hg (Sep 17, 1:50 AM)
Average64 °F69%30.04 "Hg
* Reported Sep 10 2:20 PM — Sep 25 2:50 PM, Schwechat, Weather by CustomWeather, © 2016

Note: Actual official high and low records may vary slightly from our data, if they occured in-between our weather recording intervals... More about our weather records

Advertising

Schwechat Weather History for the Previous 24 Hours

Scroll right to see more
 ConditionsComfort  
Time TempWeatherWind HumidityBarometerVisibility
2:50 PM
Sun, Sep 25
72 °FPassing clouds.6 mph41%30.12 "HgN/A
2:20 PM72 °FPassing clouds.5 mph41%30.15 "HgN/A
1:50 PM70 °FPassing clouds.7 mph46%30.15 "HgN/A
1:20 PM70 °FScattered clouds.7 mph46%30.15 "HgN/A
12:50 PM70 °FScattered clouds.8 mph46%30.18 "HgN/A
12:20 PM68 °FPassing clouds.7 mph53%30.18 "HgN/A
11:50 AM66 °FSunny.5 mph64%30.18 "Hg10 mi
11:20 AM63 °FPassing clouds.5 mph68%30.18 "HgN/A
10:50 AM63 °FPassing clouds.3 mph68%30.21 "HgN/A
10:20 AM59 °FSunny.3 mph72%30.21 "Hg10 mi
9:50 AM59 °FSunny.3 mph72%30.21 "Hg10 mi
9:20 AM55 °FPassing clouds.3 mph77%30.21 "HgN/A
8:50 AM54 °FFog.2 mph82%30.21 "HgN/A
8:20 AM52 °FFog.2 mph88%30.21 "HgN/A
7:50 AM50 °FFog.2 mph94%30.21 "Hg6 mi
7:20 AM46 °FFog.2 mph100%30.21 "Hg4 mi
6:50 AM46 °FCool.2 mph93%30.21 "Hg3 mi
6:20 AM46 °FClear.1 mph93%30.21 "Hg10 mi
5:50 AM46 °FClear.1 mph100%30.21 "Hg10 mi
5:20 AM48 °FClear.2 mph94%30.21 "Hg10 mi
4:50 AM46 °FClear.2 mph93%30.21 "Hg10 mi
4:20 AM48 °FClear.5 mph87%30.21 "Hg10 mi
3:50 AM48 °FPassing clouds.3 mph94%30.21 "HgN/A
3:20 AM48 °FClear.3 mph87%30.21 "Hg10 mi
2:50 AM48 °FClear.3 mph94%30.21 "Hg10 mi
2:20 AM48 °FClear.5 mph87%30.21 "Hg10 mi
1:50 AM48 °FClear.3 mph87%30.24 "Hg10 mi
1:20 AM50 °FClear.3 mph88%30.24 "Hg10 mi
12:50 AM50 °FClear.3 mph88%30.24 "Hg10 mi
12:20 AM50 °FClear.5 mph88%30.24 "Hg10 mi
11:50 PM
Sat, Sep 24
52 °FClear.5 mph82%30.24 "Hg10 mi
11:20 PM48 °FClear.7 mph87%30.27 "Hg10 mi
10:50 PM55 °FClear.2 mph72%30.27 "Hg10 mi
10:20 PM55 °FClear.2 mph72%30.27 "Hg10 mi
9:50 PM54 °FPassing clouds.6 mph77%30.27 "HgN/A
9:20 PM57 °FClear.6 mph67%30.27 "Hg10 mi
8:50 PM59 °FClear.3 mph63%30.27 "Hg10 mi
8:20 PM59 °FClear.2 mph59%30.27 "Hg10 mi
7:50 PM61 °FClear.5 mph55%30.27 "Hg10 mi
7:20 PM63 °FClear.3 mph56%30.27 "Hg10 mi
6:50 PM64 °FClear.1 mph56%30.27 "Hg10 mi
6:20 PM68 °FSunny.1 mph46%30.27 "Hg10 mi
5:50 PM68 °FSunny.2 mph46%30.27 "Hg10 mi
5:20 PM68 °FSunny.5 mph46%30.27 "Hg10 mi
4:50 PM70 °FSunny.5 mph40%30.27 "Hg10 mi
4:20 PM70 °FSunny.5 mph40%30.27 "Hg10 mi
Weather by CustomWeather, © 2016

See weather overviewHow to use our weather pages